Terug naar catalogus

HAWK-8B

ActiefMilitairVLEO
NORAD 59445·PAYLOAD·🇺🇸 United States

Gelanceerd Apr 7, 2024 vanaf Cape Canaveral Space Force Station

Loading…

Volgende Passages (komende 24 uur)

TLE

VersSource: Space-Track

Epoch: Sep 14, 2026, 11:09 UTC

1 59445U 24066D   26257.46465929  .00005137  00000-0  43170-3 0  9996
2 59445  45.6104 177.0294 0002915 190.9627 169.1192 14.99414270133221

Volg HAWK-8B in realtime met AllMySat

Download on the App Store